Overview Statistics Trail Chart Weather Telemetry Raw packets
 

This is the latest recevied weather packets stored in our database for station/object IZ5MMH-3. If no packets are shown the sender has not sent any weather packets the latest 10 day(s).

<< 2 3 4 5 6 7 8 >>
Time Temp. Humidity Pressure Rain* Wind** Luminosity Snow
1788513230 30° C 60% 1019.5 hPa - - - -
1788512630 29.44° C 58% 1019.5 hPa - - - -
1788512029 29.44° C 59% 1019.5 hPa - - - -
1788511429 28.89° C 60% 1019.5 hPa - - - -
1788510830 28.89° C 57% 1019.5 hPa - - - -
1788510230 28.89° C 60% 1019.5 hPa - - - -
1788509630 28.33° C 59% 1019.3 hPa - - - -
1788509029 27.78° C 57% 1019.3 hPa - - - -
1788508430 27.78° C 60% 1019.2 hPa - - - -
1788507830 27.22° C 63% 1019 hPa - - - -
1788507230 26.67° C 62% 1019 hPa - - - -
1788506629 26.11° C 60% 1018.9 hPa - - - -
1788506030 25.56° C 63% 1019 hPa - - - -
1788505430 25° C 62% 1018.9 hPa - - - -
1788504830 25° C 63% 1018.8 hPa - - - -
1788504229 24.44° C 64% 1018.9 hPa - - - -
1788503630 23.89° C 66% 1018.7 hPa - - - -
1788503029 23.33° C 66% 1018.7 hPa - - - -
1788502429 22.78° C 67% 1018.7 hPa - - - -
1788501829 22.78° C 70% 1018.7 hPa - - - -
1788501230 22.22° C 70% 1018.7 hPa - - - -
1788500630 21.67° C 71% 1018.5 hPa - - - -
1788500029 21.67° C 72% 1018.4 hPa - - - -
1788499429 21.67° C 71% 1018.4 hPa - - - -
1788498829 21.11° C 72% 1018.4 hPa - - - -

* Rain since midnight (hover to see other rain measurements)
** Current wind speed in m/s (hover to see current wind gust speed)